Regional Weather Roundup
Issued by NWS

Home | Current Version | Previous Version | Text Only | Print | Product List | Glossary Off
Versions: 1 2 3 4 5 6 7 8 9 10 11 12 13 14 15 16 17 18 19 20 21 22 23 24 25 26 27 28 29 30 31 32 33 34 35 36 37 38 39 40 41 42 43 44 45 46 47 48 49 50

000
ASUS43 KBIS 130410
RWRND

NORTH DAKOTA REGIONAL WEATHER ROUNDUP
NATIONAL WEATHER SERVICE BISMARCK ND
1000 PM CST TUE DEC 12 2017

NOTE: "FAIR" INDICATES FEW OR NO CLOUDS BELOW 12,000 FEET WITH NO
SIGNIFICANT WEATHER AND/OR OBSTRUCTIONS TO VISIBILITY.


NDZ001>003-009>011-017-130500-
NORTHWEST NORTH DAKOTA

CITY           SKY/WX    TMP DP  RH WIND       PRES   REMARKS
WILLISTON      CLOUDY    47  28  47 NW36G45   29.74R
MINOT          CLOUDY    43  29  57 NW30G40   29.56R
MINOT AFB      CLOUDY    42  29  60 NW24G35   29.55R
$$

NDZ018>021-031>035-040>046-130500-
SOUTHWEST NORTH DAKOTA

CITY           SKY/WX    TMP DP  RH WIND       PRES   REMARKS
BISMARCK       CLOUDY    48  19  31 W20G26    29.57F
DICKINSON      PTCLDY    47  24  40 NW28G38   29.69R
GARRISON         N/A     43  26  51 NW33G44   29.56S
HETTINGER ARPT CLOUDY    49  17  28 NW35G48   29.75R
$$

NDZ004>008-012>016-024-026-027-054-130500-
NORTHEAST NORTH DAKOTA

CITY           SKY/WX    TMP DP  RH WIND       PRES   REMARKS
GRAND FORKS    CLOUDY    30  28  92 S7        29.41F
GRND FRKS AFB  CLOUDY    38  29  68 CALM      29.41F
DEVILS LAKE    CLOUDY    39  27  62 W13       29.44F
$$

NDZ022-023-025-028>030-036>039-047>053-130500-
SOUTHEAST NORTH DAKOTA

CITY           SKY/WX    TMP DP  RH WIND       PRES   REMARKS
FARGO          CLOUDY    33  28  81 SE8       29.47F
JAMESTOWN      CLOUDY    38  28  67 SW12      29.46F
$$





USA.gov is the U.S. government's official web portal to all federal, state and local government web resources and services.